Location: Cabri�res
(43.7840°N, 5.4986°E)
Time: 19:13:55
(UTC+00:00)

Cosmos 1833 Rocket - Pass Details

Date: 09 April 2020
Orbit: 834 x 838 km, 71.0° (Epoch: 31 May)

Event Time Altitude Azimuth Distance (km) Brightness Sun altitude
Exits shadow 20:39:34 27° 61° (ENE) 1,547 3.8 -24.2°
Drops below altitude 10° 20:42:30 10° 39° (NE) 2,458 5.1 -24.6°
Sets 20:45:05 0° 32° (NNE) 3,396 6.0 -24.9°
